EW7920 Weather Reports


Display with metric or nautical units.
time (UTC)temp
F
wind
direction
speed
MPH
gust
MPH
rain 1hr
in
rain 24hr
in
rain mn
in
humidity
%
barometer
mb
20260508033532 46 0 0.0 0.0 0.00 0.31 0.30 96 1013.5
20260508033049 46 0 0.0 0.0 0.00 0.31 0.30 96 1013.5
20260508032534 46 0 0.0 0.0 0.00 0.31 0.30 96 1013.5
20260508032034 46 0 0.0 0.0 0.00 0.31 0.30 96 1013.4
20260508031541 46 0 0.0 0.0 0.00 0.31 0.30 96 1013.5
20260508031033 46 0 0.0 0.0 0.00 0.31 0.30 96 1013.4
20260508030535 47 0 0.0 0.0 0.00 0.31 0.30 96 1013.3
20260508030045 47 0 0.0 0.0 0.00 0.31 0.30 96 1013.4
20260508025537 47 0 0.0 0.0 0.00 0.33 0.30 96 1013.2
20260508025033 47 0 0.0 0.0 0.00 0.33 0.30 96 1013.2
20260508024550 48 0 0.0 0.0 0.00 0.33 0.30 96 1013.2
20260508024033 48 0 0.0 0.0 0.00 0.33 0.30 96 1013.1
20260508023533 48 0 0.0 0.0 0.00 0.33 0.30 96 1013.1
20260508023043 48 0 0.0 0.0 0.00 0.33 0.30 96 1013.0
20260508022533 49 0 0.0 0.0 0.00 0.33 0.30 96 1012.9
20260508022033 49 0 0.0 0.0 0.00 0.33 0.30 96 1012.8
20260508021549 49 0 0.0 0.0 0.00 0.33 0.30 96 1012.8
20260508021034 49 0 0.0 0.0 0.00 0.33 0.30 96 1012.7
20260508020532 49 0 0.0 0.0 0.00 0.33 0.30 96 1012.5
20260508020040 50 0 0.0 0.0 0.00 0.33 0.30 96 1012.5
20260508015532 50 0 0.0 0.0 0.00 0.33 0.30 96 1012.4
20260508015033 50 0 0.0 0.0 0.00 0.33 0.30 96 1012.2
20260508014540 50 0 0.0 0.0 0.00 0.33 0.30 96 1012.3
20260508014034 50 0 0.0 0.0 0.00 0.33 0.30 96 1012.2
20260508013535 50 0 0.0 0.0 0.00 0.33 0.30 96 1012.2
20260508013039 50 0 0.0 0.0 0.00 0.33 0.30 96 1012.1
20260508012533 51 0 0.0 0.0 0.00 0.33 0.30 96 1012.0
20260508012033 51 0 0.0 0.0 0.00 0.33 0.30 96 1011.9
20260508011549 51 0 0.0 1.0 0.00 0.33 0.30 96 1011.8
20260508011036 51 0 0.0 1.0 0.00 0.33 0.30 96 1011.7
20260508010537 51 0 0.0 0.0 0.00 0.33 0.30 96 1011.6
20260508010057 51 0 0.0 0.0 0.00 0.33 0.30 96 1011.7
20260508005539 52 0 0.0 0.0 0.00 0.33 0.30 96 1011.6
20260508005034 52 0 0.0 0.0 0.00 0.33 0.30 95 1011.6
20260508004547 52 0 0.0 0.0 0.00 0.33 0.30 95 1011.6
20260508004035 52 0 0.0 0.0 0.00 0.33 0.30 95 1011.7
20260508003533 53 0 0.0 0.0 0.00 0.33 0.30 95 1011.6
20260508003040 53 0 0.0 0.0 0.00 0.33 0.30 95 1011.6
20260508002533 53 0 0.0 0.0 0.00 0.33 0.30 95 1011.5
20260508002033 53 0 0.0 0.0 0.00 0.33 0.30 94 1011.6
20260508001551 54 0 0.0 0.0 0.00 0.33 0.30 95 1011.7
20260508001033 54 0 0.0 0.0 0.00 0.33 0.30 94 1011.5
20260508000532 54 0 0.0 0.0 0.00 0.33 0.30 94 1011.5
20260508000048 54 0 0.0 0.0 0.00 0.33 0.30 93 1011.4
20260507235533 54 0 0.0 0.0 0.00 0.33 0.30 93 1011.3
20260507235034 55 0 0.0 0.0 0.00 0.33 0.30 93 1011.2
20260507234548 55 0 0.0 0.0 0.00 0.33 0.30 92 1011.2
20260507234033 55 0 0.0 0.0 0.00 0.33 0.30 92 1011.1
20260507233534 55 0 0.0 0.0 0.00 0.33 0.30 92 1010.9
20260507233051 55 0 0.0 0.0 0.00 0.33 0.30 91 1010.9
20260507232534 56 0 0.0 0.0 0.00 0.33 0.30 91 1010.9
20260507232033 56 0 0.0 3.0 0.00 0.33 0.30 91 1011.0
20260507231551 56 0 0.0 3.0 0.00 0.33 0.30 90 1010.9
20260507231033 56 0 0.0 2.0 0.00 0.33 0.30 90 1010.8
20260507230533 56 31 0.0 0.0 0.00 0.33 0.30 90 1010.7
20260507230057 56 0 0.0 0.0 0.00 0.33 0.30 91 1010.8
20260507225534 56 0 0.0 0.0 0.00 0.33 0.30 93 1010.8
20260507225033 56 0 0.0 0.0 0.00 0.33 0.30 92 1010.7
20260507224545 56 0 0.0 0.0 0.00 0.33 0.30 92 1010.8
20260507224033 56 0 0.0 0.0 0.00 0.33 0.30 93 1010.7
20260507223537 56 0 0.0 0.0 0.00 0.33 0.30 92 1010.7
20260507223131 56 0 0.0 1.0 0.00 0.33 0.30 92 1010.7
20260507222533 56 0 0.0 1.0 0.00 0.33 0.30 91 1010.7
20260507222033 56 0 0.0 3.0 0.00 0.33 0.30 90 1010.5
20260507221541 56 0 0.0 3.0 0.00 0.33 0.30 91 1010.5
20260507221034 56 345 0.0 3.0 0.00 0.33 0.30 90 1010.5
20260507220533 56 0 1.0 3.0 0.00 0.33 0.30 90 1010.4
20260507220041 56 0 0.0 2.0 0.00 0.33 0.30 91 1010.4
20260507215533 56 5 0.0 2.0 0.00 0.33 0.30 91 1010.4
20260507215036 56 255 0.0 2.0 0.00 0.33 0.30 92 1010.4
20260507214556 56 213 0.0 3.0 0.00 0.33 0.30 93 1010.4
20260507214033 55 5 0.0 4.0 0.00 0.33 0.30 93 1010.5
20260507213534 55 0 1.0 4.0 0.00 0.33 0.30 92 1010.5
20260507213039 55 12 0.0 3.0 0.00 0.33 0.30 94 1010.5
20260507212535 55 0 0.0 2.0 0.00 0.33 0.30 94 1010.6
20260507212034 54 305 0.0 4.0 0.00 0.33 0.30 94 1010.6
20260507211545 54 0 0.0 4.0 0.00 0.33 0.30 93 1010.6
20260507211032 54 355 1.0 4.0 0.00 0.33 0.30 93 1010.5
20260507210532 54 298 1.0 4.0 0.00 0.33 0.30 94 1010.5
20260507210048 54 0 0.0 3.0 0.00 0.33 0.30 94 1010.3
20260507205536 54 0 0.0 5.0 0.00 0.33 0.30 94 1010.4
20260507205034 54 292 1.0 5.0 0.00 0.33 0.30 94 1010.6
20260507204542 54 199 1.0 3.0 0.00 0.33 0.30 94 1010.6
20260507204034 54 0 0.0 4.0 0.00 0.33 0.30 94 1010.5
20260507203534 54 0 1.0 4.0 0.00 0.33 0.30 95 1010.6
20260507203042 54 0 0.0 4.0 0.00 0.33 0.30 96 1010.5
20260507202534 54 0 0.0 7.0 0.00 0.33 0.30 96 1010.3
20260507202036 53 52 2.0 7.0 0.00 0.33 0.30 95 1010.5
20260507201541 53 234 1.0 6.0 0.00 0.33 0.30 96 1010.7
20260507201034 53 11 1.0 4.0 0.00 0.33 0.30 97 1010.7
20260507200533 53 313 0.0 4.0 0.00 0.33 0.30 97 1010.9
20260507200054 53 294 0.0 4.0 0.00 0.33 0.30 97 1011.2
20260507195533 53 351 1.0 3.0 0.00 0.33 0.30 97 1011.1
20260507195034 53 0 0.0 3.0 0.00 0.33 0.30 97 1011.3
20260507194542 53 281 0.0 3.0 0.01 0.33 0.30 97 1011.4
20260507194032 53 348 0.0 4.0 0.03 0.33 0.30 96 1011.3
20260507193533 53 332 1.0 4.0 0.05 0.33 0.30 96 1011.3
20260507193046 53 0 1.0 3.0 0.05 0.33 0.30 96 1011.3
20260507192533 53 17 1.0 3.0 0.05 0.33 0.30 97 1011.4
20260507192032 53 0 0.0 2.0 0.05 0.33 0.30 97 1011.3
20260507191539 53 312 0.0 2.0 0.05 0.33 0.30 97 1011.3
20260507191037 53 0 0.0 3.0 0.06 0.33 0.30 97 1011.5
20260507190533 53 0 0.0 3.0 0.06 0.33 0.30 97 1011.6
20260507190050 53 0 0.0 2.0 0.06 0.33 0.30 97 1011.5
20260507185532 53 0 0.0 3.0 0.07 0.33 0.30 97 1011.7
20260507185035 53 0 0.0 3.0 0.07 0.33 0.30 96 1011.8
20260507184542 53 0 0.0 3.0 0.07 0.32 0.29 96 1011.7
20260507184033 53 0 1.0 3.0 0.04 0.29 0.26 97 1011.7
20260507183534 53 313 1.0 2.0 0.04 0.28 0.25 97 1011.7
20260507183042 53 0 0.0 2.0 0.05 0.28 0.25 97 1011.7
20260507182537 53 0 0.0 0.0 0.05 0.28 0.25 97 1011.6
20260507182036 53 0 0.0 1.0 0.05 0.28 0.25 97 1011.6
20260507181540 53 0 0.0 1.0 0.05 0.28 0.25 97 1011.8
20260507181033 53 0 0.0 0.0 0.05 0.27 0.24 97 1011.6
20260507180535 53 0 0.0 0.0 0.07 0.27 0.24 97 1011.9
20260507180050 53 0 0.0 2.0 0.08 0.27 0.24 97 1011.6
20260507175533 53 0 0.0 2.0 0.07 0.26 0.23 97 1011.8
20260507175033 53 0 0.0 3.0 0.08 0.26 0.23 97 1011.8
20260507174554 53 326 1.0 3.0 0.08 0.25 0.22 96 1011.8
20260507174036 53 0 0.0 4.0 0.08 0.25 0.22 97 1011.7
20260507173536 53 0 0.0 4.0 0.07 0.24 0.21 97 1011.5
20260507173042 53 0 0.0 4.0 0.06 0.23 0.20 96 1011.7
20260507172541 53 0 1.0 4.0 0.06 0.23 0.20 97 1011.6
20260507172036 53 0 0.0 3.0 0.06 0.23 0.20 97 1011.5
20260507171552 53 166 0.0 3.0 0.06 0.23 0.20 97 1011.6
20260507171036 53 0 0.0 2.0 0.05 0.22 0.19 97 1011.5
20260507170534 53 0 0.0 2.0 0.04 0.20 0.17 96 1011.7
20260507170045 53 247 0.0 2.0 0.03 0.19 0.16 96 1011.8
20260507165533 53 298 0.0 3.0 0.04 0.20 0.16 96 1011.7
20260507165032 53 0 0.0 3.0 0.03 0.19 0.15 96 1011.8
20260507164551 53 0 0.0 3.0 0.02 0.18 0.14 96 1011.8
20260507164036 53 0 0.0 2.0 0.02 0.18 0.14 96 1011.7
20260507163535 54 0 0.0 0.0 0.02 0.18 0.14 96 1011.7
20260507163047 54 0 0.0 3.0 0.02 0.18 0.14 96 1011.8
20260507162534 54 0 0.0 3.0 0.03 0.18 0.14 96 1011.8
20260507162033 54 313 0.0 3.0 0.03 0.18 0.14 96 1011.7
20260507161556 54 312 0.0 2.0 0.03 0.18 0.14 96 1011.7
20260507161036 54 0 0.0 2.0 0.03 0.18 0.14 96 1011.9
20260507160534 54 0 0.0 2.0 0.02 0.17 0.13 96 1011.8
20260507160046 54 0 0.0 0.0 0.02 0.17 0.13 96 1012.0
20260507155535 54 0 0.0 0.0 0.02 0.17 0.12 96 1012.0
20260507155034 55 0 0.0 2.0 0.02 0.17 0.12 96 1012.1
20260507154552 55 0 0.0 2.0 0.02 0.17 0.12 96 1012.0
20260507154036 55 0 0.0 7.0 0.03 0.17 0.12 96 1012.1
20260507153534 55 0 0.0 7.0 0.05 0.17 0.12 96 1012.1
20260507153102 55 178 1.0 7.0 0.05 0.17 0.12 96 1012.1
20260507152545 55 0 1.0 6.0 0.04 0.16 0.11 96 1012.0
20260507152035 55 0 2.0 6.0 0.04 0.16 0.11 96 1011.9
20260507151546 55 191 0.0 5.0 0.05 0.16 0.11 96 1012.1
20260507151034 55 139 0.0 4.0 0.05 0.16 0.11 96 1012.1
20260507150534 55 0 1.0 6.0 0.06 0.16 0.11 96 1012.0
20260507150049 55 171 1.0 6.0 0.06 0.16 0.11 96 1011.9
20260507145533 55 173 1.0 4.0 0.05 0.16 0.10 96 1011.9
20260507145032 55 0 0.0 6.0 0.05 0.16 0.10 95 1011.9
20260507144540 55 168 1.0 6.0 0.05 0.16 0.10 95 1011.9
20260507144034 56 107 1.0 6.0 0.04 0.15 0.09 94 1011.9
20260507143532 56 0 0.0 4.0 0.02 0.13 0.07 94 1011.8
20260507143041 56 214 1.0 4.0 0.02 0.13 0.07 95 1011.7
20260507142534 56 183 0.0 4.0 0.02 0.13 0.07 94 1011.6
20260507142034 57 0 1.0 4.0 0.02 0.13 0.07 94 1011.8
20260507141548 57 0 0.0 4.0 0.01 0.12 0.06 94 1011.6
20260507141030 57 187 0.0 5.0 0.01 0.12 0.06 93 1011.6
20260507140533 57 0 0.0 5.0 0.00 0.11 0.05 93 1011.6
20260507140037 58 185 2.0 5.0 0.00 0.11 0.05 92 1011.7
20260507135534 58 0 0.0 4.0 0.00 0.14 0.05 93 1012.0
20260507135036 58 266 0.0 3.0 0.00 0.14 0.05 93 1012.1
20260507134541 58 196 0.0 3.0 0.00 0.14 0.05 93 1012.0
20260507134032 58 0 0.0 3.0 0.00 0.14 0.05 93 1011.9
20260507133532 58 132 0.0 1.0 0.00 0.14 0.05 92 1011.8
20260507133041 58 0 0.0 1.0 0.00 0.14 0.05 91 1011.8
20260507132532 58 0 0.0 0.0 0.00 0.14 0.05 89 1011.9
20260507132033 58 0 0.0 0.0 0.00 0.14 0.05 92 1012.0
20260507131540 58 0 0.0 0.0 0.00 0.14 0.05 91 1011.9
20260507131031 57 0 0.0 0.0 0.00 0.14 0.05 90 1011.6
20260507130533 57 0 0.0 0.0 0.00 0.14 0.05 90 1011.6
20260507130055 57 0 0.0 0.0 0.00 0.14 0.05 91 1011.7
20260507125535 57 0 0.0 0.0 0.00 0.14 0.05 90 1011.8
20260507125032 57 0 0.0 1.0 0.00 0.14 0.05 90 1011.9
20260507124554 57 0 0.0 1.0 0.00 0.14 0.05 90 1011.9
20260507124033 57 0 0.0 1.0 0.00 0.14 0.05 91 1011.8
20260507123533 57 0 0.0 2.0 0.00 0.14 0.05 91 1011.8
20260507123057 57 0 0.0 2.0 0.00 0.14 0.05 92 1011.6
20260507122532 57 0 0.0 0.0 0.00 0.14 0.05 93 1011.5
20260507122032 57 0 0.0 0.0 0.00 0.14 0.05 93 1011.3
20260507121547 57 0 0.0 0.0 0.00 0.14 0.05 94 1011.3
20260507121033 57 0 0.0 0.0 0.00 0.14 0.05 94 1011.4
20260507120540 57 0 0.0 0.0 0.00 0.14 0.05 95 1011.5
20260507120040 57 0 0.0 0.0 0.00 0.14 0.05 96 1011.4
20260507115532 57 0 0.0 0.0 0.00 0.15 0.05 96 1011.4
20260507115034 57 0 0.0 0.0 0.00 0.15 0.05 97 1011.5
20260507114538 57 0 0.0 0.0 0.00 0.15 0.05 97 1011.4
20260507114032 57 0 0.0 0.0 0.00 0.15 0.05 97 1011.3
20260507113534 57 0 0.0 0.0 0.00 0.15 0.05 97 1011.4
20260507113043 57 0 0.0 0.0 0.00 0.15 0.05 97 1011.3
20260507112535 56 0 0.0 0.0 0.00 0.15 0.05 97 1011.2
20260507112033 56 0 0.0 0.0 0.00 0.15 0.05 96 1011.0
20260507111542 56 0 0.0 0.0 0.00 0.15 0.05 96 1011.0
20260507111032 56 0 0.0 0.0 0.00 0.15 0.05 96 1011.2
20260507110532 56 0 0.0 0.0 0.00 0.15 0.05 96 1011.3
20260507110041 56 0 0.0 0.0 0.00 0.15 0.05 96 1011.3
20260507105533 56 0 0.0 0.0 0.00 0.15 0.05 96 1011.2
20260507105032 56 0 0.0 0.0 0.00 0.15 0.05 95 1011.1
20260507104540 56 0 0.0 0.0 0.00 0.15 0.05 96 1011.0
20260507104032 56 0 0.0 0.0 0.00 0.15 0.05 96 1011.0
20260507103533 56 0 0.0 0.0 0.00 0.15 0.05 96 1010.8
20260507103044 57 0 0.0 0.0 0.00 0.15 0.05 96 1010.7
20260507102534 57 0 0.0 0.0 0.00 0.15 0.05 96 1010.8
20260507102032 57 0 0.0 1.0 0.00 0.15 0.05 96 1010.7
20260507101553 57 0 0.0 1.0 0.00 0.15 0.05 96 1010.7
20260507101031 57 0 0.0 1.0 0.00 0.15 0.05 96 1010.4
20260507100532 57 0 0.0 1.0 0.00 0.15 0.05 97 1010.5
20260507100054 57 0 0.0 0.0 0.00 0.15 0.05 97 1010.6
20260507095533 58 0 0.0 0.0 0.00 0.15 0.05 97 1010.8
20260507095034 58 0 0.0 0.0 0.00 0.15 0.05 97 1010.4
20260507094541 58 0 0.0 0.0 0.00 0.15 0.05 97 1010.3
20260507094032 58 0 0.0 0.0 0.00 0.15 0.05 97 1010.8
20260507093532 58 0 0.0 0.0 0.00 0.15 0.05 97 1011.0
20260507093040 58 0 0.0 0.0 0.00 0.15 0.05 97 1010.8
20260507092535 58 0 0.0 0.0 0.00 0.15 0.05 97 1010.7
20260507092036 59 0 0.0 0.0 0.00 0.15 0.05 97 1010.5
20260507091543 59 0 0.0 0.0 0.00 0.15 0.05 97 1010.0
20260507091032 59 0 0.0 0.0 0.00 0.15 0.05 98 1010.1
20260507090532 59 0 0.0 0.0 0.00 0.15 0.05 97 1010.2
20260507090047 59 0 0.0 0.0 0.00 0.15 0.05 97 1010.4
20260507085532 59 0 0.0 0.0 0.00 0.15 0.05 98 1010.4
20260507085032 59 0 0.0 0.0 0.00 0.15 0.05 98 1010.7
20260507084548 59 0 0.0 0.0 0.00 0.15 0.05 97 1010.9
20260507084032 59 0 0.0 0.0 0.00 0.15 0.05 97 1011.0
20260507083533 59 0 0.0 0.0 0.00 0.15 0.05 97 1010.6
20260507083058 60 0 0.0 0.0 0.00 0.15 0.05 97 1010.8
20260507082533 60 0 0.0 0.0 0.00 0.15 0.05 97 1010.7
20260507082032 60 0 0.0 0.0 0.00 0.15 0.05 97 1010.8
20260507081546 60 0 0.0 0.0 0.00 0.15 0.05 97 1010.8
20260507081033 60 0 0.0 0.0 0.00 0.15 0.05 97 1010.9
20260507080532 60 0 0.0 0.0 0.01 0.15 0.05 97 1010.9
20260507080039 60 0 0.0 0.0 0.01 0.15 0.05 97 1011.0
20260507075532 60 0 0.0 0.0 0.01 0.15 0.05 97 1011.1
20260507075032 61 0 0.0 0.0 0.01 0.15 0.05 98 1010.9
20260507074542 61 0 0.0 0.0 0.01 0.15 0.05 98 1010.9
20260507074032 61 0 0.0 0.0 0.01 0.15 0.05 98 1010.9
20260507073532 61 0 0.0 0.0 0.01 0.15 0.05 98 1011.1
20260507073053 61 0 0.0 0.0 0.01 0.15 0.05 98 1010.8
20260507072535 61 0 0.0 0.0 0.01 0.15 0.05 98 1010.9
20260507072036 61 0 0.0 0.0 0.01 0.15 0.05 98 1010.7
20260507071542 61 0 0.0 0.0 0.01 0.15 0.05 98 1010.4
20260507071032 61 0 0.0 0.0 0.01 0.15 0.05 98 1010.6
20260507070532 61 0 0.0 0.0 0.00 0.14 0.04 98 1010.3
20260507070042 61 0 0.0 0.0 0.00 0.14 0.04 98 1010.2
20260507065532 61 0 0.0 0.0 0.00 0.14 0.04 98 1010.8
20260507065033 61 0 0.0 0.0 0.00 0.14 0.04 98 1010.9
20260507064542 61 0 0.0 0.0 0.00 0.14 0.04 98 1010.5
20260507064032 61 0 0.0 0.0 0.00 0.14 0.04 98 1010.7
20260507063532 61 0 0.0 0.0 0.00 0.14 0.04 98 1010.4
20260507063046 61 0 0.0 0.0 0.01 0.14 0.04 98 1010.6
20260507062533 61 0 0.0 0.0 0.01 0.14 0.04 98 1010.4
20260507062032 61 0 0.0 0.0 0.01 0.14 0.04 98 1010.3
20260507061545 61 0 0.0 0.0 0.02 0.14 0.04 98 1010.2
20260507061033 61 0 0.0 0.0 0.02 0.14 0.04 97 1010.7
20260507060530 61 0 0.0 0.0 0.03 0.14 0.04 97 1010.7
20260507060042 61 0 0.0 0.0 0.03 0.14 0.04 97 1011.0
20260507055530 62 0 0.0 0.0 0.03 0.14 0.04 97 1011.0
20260507055033 62 0 0.0 0.0 0.04 0.14 0.04 97 1011.2
20260507054543 62 0 0.0 0.0 0.04 0.14 0.04 97 1011.2
20260507054036 62 0 0.0 3.0 0.04 0.14 0.04 97 1011.3
20260507053534 62 0 0.0 4.0 0.04 0.14 0.04 97 1011.3
20260507053041 62 0 1.0 4.0 0.03 0.13 0.03 97 1011.2
20260507052533 62 70 1.0 4.0 0.03 0.13 0.03 97 1011.2
20260507052033 62 0 0.0 0.0 0.02 0.12 0.02 97 1011.0
20260507051543 62 0 0.0 0.0 0.02 0.12 0.02 97 1011.2
20260507051033 62 0 0.0 0.0 0.01 0.11 0.01 97 1011.4
20260507050535 62 0 0.0 0.0 0.01 0.11 0.01 97 1011.1
20260507050040 62 0 0.0 0.0 0.01 0.11 0.01 97 1011.0
20260507045530 62 0 0.0 0.0 0.01 0.11 0.01 97 1011.0
20260507045030 62 0 0.0 0.0 0.00 0.10 0.00 97 1010.8
20260507044540 62 0 0.0 0.0 0.00 0.10 0.00 97 1010.9
20260507044030 62 0 0.0 0.0 0.00 0.10 0.00 97 1010.9
20260507043533 62 0 0.0 0.0 0.00 0.10 0.00 97 1010.6
20260507043043 63 0 0.0 0.0 0.00 0.10 0.00 97 1010.6
20260507042529 63 0 0.0 0.0 0.01 0.10 0.00 97 1010.7
20260507042037 63 0 0.0 0.0 0.01 0.10 0.00 97 1011.0
20260507041546 63 0 0.0 0.0 0.01 0.10 0.00 97 1011.0
20260507041039 63 0 0.0 0.0 0.01 0.10 0.00 97 1011.0
20260507040531 63 0 0.0 0.0 0.01 0.10 0.00 97 1011.2
20260507040040 63 0 0.0 0.0 0.01 0.10 0.00 97 1011.4
20260507035533 63 0 0.0 0.0 0.02 0.10 0.10 97 1011.4
20260507035036 63 0 0.0 0.0 0.02 0.10 0.10 97 1011.6
20260507034539 63 0 0.0 0.0 0.02 0.10 0.10 97 1011.9
20260507034034 63 0 0.0 0.0 0.03 0.10 0.10 96 1012.1